Showing default

TANSAT, 41898

Orbit data source: Space-Track

TANSAT, 41898 is a Chinese payload satellite in SSO that was launched on Wed, 21 Dec 2016 UTC via a CHANG ZHENG 2D launch vehicle from the Jiuquan Satellite Launch Center, China (JSC). Payload-class satellites include a variety of spacecraft equipped with specific instruments for various scientific and technological missions. These include communications satellites like Starlink; space stations such as the ISS; scientific satellites like the Hubble; Earth observation satellites from companies like Planet Labs, Umbra, and HawkEye 360; GPS; miniature CubeSats for education and research; and military/defense satellites.

Loading next visibility...
Identifier
41898, 2016-081A
Orbit
SSO
Last TLE update
6 hours ago
Origin
Manufacturer
SECM
Mission
Operational Civil Science
Bus & Motor
TANSAT, Unknown motor
Mass
~620 kg wet, ~600 kg dry
Launch date (UTC)
2016-12-21 (9 years ago)
Launch vehicle
CHANG ZHENG 2D
Launch site
Jiuquan Satellite Launch Center, China (JSC)
Object type
Payload
Rocket body
Debris
Shape & HBR
Box + 2 Pan, 10 m
Radar Cross Section
7.261 m², Large (>1 m²)

Expand to show TLE details & history

TLE from 6 hours ago
0 TANSAT
1 41898U 16081A   25186.89692255  .00000379  00000-0  90120-4 0  9999
2 41898  98.5124 172.4340 0019446 301.0733  58.8557 14.59583639454108
Epoch: 2025-07-05T21:31Z
TLE epoch observation values (Epoch: 2025-07-05T21:31:34.108Z)
Latitude
-0.00002°
Longitude
-74.5865°
Altitude
690.398 km
Speed
7.515 km/s
True Right ascension
11h 29m 44s
True Declination
0° 00' 00"
Sunlit
Object was in daylight at epoch
Visualization orbit readout
Latitude
-32.00657°
Longitude
-68.97268°
Altitude
694.355 km
Speed
7.514 km/s
Apparent Right ascension
08h 32m 44s
Apparent Declination
-54° 23' 59"
Sunlit
Object is in daylight
Visualization observer readout
Local Sidereal Time
15:54:42
Azimuth
227.89° WSW
Elevation
-42.69°
Doppler factor
1
Orbital elements
Apogee altitude
705.363 km
Perigee altitude
677.867 km
Semi-major axis
7,069.752 km
Eccentricity
0.00194
Inclination
98.5124°
RAAN
172.434°
Arg. of periapsis
301.0733°
True anomaly
Unknown
Mean anomaly
58.8557°
Eccentric anomaly
Unknown
Mean motion
3.65121 °/min
Orbital period
98.6 mins
BSTAR
0.00009012
Loading maneuver chart data...
Loading SW <> Apogee altitude chart data...
Loading historical data...
Loading historical data...
Loading historical data...
Loading historical data...
Loading historical data...
Loading historical data...
Loading historical data...
Other satellites on launch #81 in the year 2016 (2016-12-21 UTC)

TANSAT Visibility forecast

Observer location: undefined°, undefined°

Span
Click to sort rows by Start time (UTC) header in descending order
Start Az.
Max El. time (UTC)
Max El. Az.
Max El.
End time (UTC)
End Az.
7 mins2025-07-06 11:16:36.674Z39.262° NE2025-07-06 11:19:36.674Z86.702° E27.997°2025-07-06 11:23:36.674Z156.834° SSE
6 mins2025-07-06 12:54:36.674Z338.547° N2025-07-06 12:57:36.674Z288.664° WNW23.303°2025-07-06 13:00:36.674Z243.445° WSW
6 mins2025-07-06 22:21:36.674Z118.554° SE2025-07-06 22:23:36.674Z80.224° E28.864°2025-07-06 22:27:36.674Z9.226° NNE
5 mins2025-07-06 23:59:36.674Z230.344° WSW2025-07-07 00:01:36.674Z265.387° W21.736°2025-07-07 00:04:36.674Z311.668° NW
|